RH
100 100 100 100 100 100 100 100 90 78 100 94 97 100 100 92 68 72 92 74 72 55 58 48 59 61 58 63 54 49 35 27 18 12 8 7 6 4 3 3 4 4 4 4 5 4 4 5 5 5 5 5 5 4
100 100 100 100 100 100 98 100 93 92 97 100 100 100 100 78 98 84 66 80 70 57 58 48 58 57 54 53 49 36 30 22 14 9 8 6 4 3 3 4 4 4 5 5 5 5 6 5 5 5 5 5 6 5
100 100 100 100 100 100 98 100 91 100 100 100 99 95 100 100 100 81 80 69 50 58 54 50 58 54 52 48 40 32 22 18 11 8 7 4 3 4 4 4 4 5 6 6 5 5 6 6 6 6 6 6 5 5
100 100 100 100 100 100 84 92 93 98 100 100 100 100 100 100 96 88 84 68 75 69 54 61 59 58 58 41 35 25 20 13 9 8 6 4 4 4 4 4 6 6 7 6 5 5 6 6 6 6 7 6 5 5
100 100 100 100 94 88 98 100 98 100 100 100 100 100 100 100 80 79 82 75 75 59 62 64 64 47 44 36 25 19 15 10 8 7 4 4 4 5 5 6 7 7 8 8 7 6 7 7 7 7 6 6 5 5
100 100 98 100 100 100 92 97 100 100 100 100 100 100 97 83 79 97 68 78 61 66 61 60 51 53 40 29 21 15 11 9 7 5 4 4 5 5 5 7 8 8 8 8 7 7 6 7 7 8 8 6 5 4
100 100 100 100 91 83 98 100 100 100 100 100 100 91 94 84 97 84 78 58 60 58 65 58 51 45 31 23 18 12 9 8 6 4 5 5 6 6 7 8 8 10 8 7 6 6 7 6 7 7 8 7 6 5
98 88 86 81 81 98 100 100 100 100 100 100 93 97 91 96 100 88 58 59 57 64 50 56 40 34 24 20 13 10 9 6 5 5 5 6 6 6 8 8 8 11 15 14 12 8 6 6 6 8 9 8 7 6
89 85 98 100 100 100 100 100 100 100 99 93 99 98 100 100 89 57 64 64 61 52 58 39 36 28 21 15 11 9 7 5 5 5 6 7 7 8 9 8 7 8 9 13 14 14 12 10 8 8 8 8 8 7
100 100 100 100 100 100 100 100 100 100 100 93 97 100 96 90 71 64 67 57 55 56 42 34 28 21 16 12 10 8 6 5 5 6 8 8 7 9 10 8 8 9 10 11 12 11 11 10 9 7 8 8 8 7
100 100 100 100 100 100 100 100 100 100 95 98 96 90 86 72 67 69 54 52 50 42 35 28 21 18 13 10 9 7 6 5 6 7 9 8 10 11 9 10 14 14 12 11 11 12 11 11 10 8 9 9 9 8
100 100 100 100 100 100 100 100 100 96 91 89 90 83 65 70 58 57 57 52 44 36 28 21 19 13 10 10 7 6 6 6 7 9 9 9 12 13 11 12 15 14 12 15 15 16 16 13 12 11 10 9 9 9
100 100 100 100 100 100 100 99 100 100 94 76 80 78 64 61 61 59 54 43 33 28 22 18 13 10 10 9 6 6 6 6 8 10 10 12 14 12 11 19 16 13 14 17 19 19 18 18 18 18 17 15 13 11
100 100 100 100 100 100 100 94 100 97 90 86 88 79 70 61 61 50 46 33 28 22 18 13 11 10 9 7 6 6 6 8 9 10 11 14 16 13 16 20 17 15 22 25 21 25 26 23 23 23 20 16 14 12
100 100 100 100 100 100 100 96 99 88 79 76 85 75 62 59 45 52 34 28 22 17 13 10 10 9 7 7 6 6 7 9 10 10 13 17 16 15 25 22 19 20 25 23 29 31 29 26 25 22 19 17 17 14
100 100 100 100 100 100 100 84 82 91 94 74 67 69 62 49 48 36 25 20 15 12 10 10 9 7 7 6 6 7 8 10 10 11 14 21 18 21 28 27 23 25 28 32 34 34 31 31 29 23 22 24 22 18
100 100 100 100 99 90 84 88 100 83 74 68 63 55 50 49 33 24 18 14 12 10 11 10 7 6 6 6 7 8 9 10 11 12 17 23 22 29 33 31 26 26 41 38 37 38 33 29 25 30 30 27 23 20
98 93 85 97 91 90 96 90 82 82 67 54 52 48 43 30 23 17 14 12 11 10 10 7 6 5 6 6 7 8 8 9 11 13 19 25 30 36 37 36 30 34 41 37 39 38 33 36 40 36 30 26 24 23
100 100 96 94 90 92 80 84 70 61 56 51 48 37 27 22 17 14 12 11 10 10 7 6 5 5 6 7 7 8 8 9 12 15 21 27 37 42 40 41 33 37 41 41 44 38 40 42 40 38 38 36 34 31
100 98 92 94 86 76 73 58 53 49 46 40 31 28 21 16 14 12 11 10 9 7 6 5 5 6 7 7 7 8 8 10 12 17 22 28 41 47 43 44 35 41 43 40 46 45 45 46 42 41 45 39 36 38
86 81 80 69 61 63 59 61 48 40 39 29 28 18 16 14 12 11 10 8 7 5 5 5 6 6 7 8 8 9 10 11 13 18 22 26 39 51 51 48 40 40 48 51 52 49 45 44 46 46 49 46 40 39
79 71 65 63 64 61 50 48 42 35 26 26 18 16 14 11 10 10 8 6 5 4 5 5 6 7 8 9 9 10 10 12 14 18 22 27 34 51 63 58 49 43 45 50 56 55 53 48 46 47 47 45 41 39
70 79 79 68 61 55 47 39 31 27 26 20 17 13 11 10 10 8 6 5 4 5 5 6 7 8 8 9 10 10 11 12 15 18 22 26 34 46 58 65 57 52 50 52 55 59 61 58 55 52 50 48 46 46
85 80 76 62 47 42 35 28 30 24 19 16 13 11 10 10 8 7 5 5 5 6 6 6 7 8 9 10 11 12 12 12 16 19 22 25 30 40 55 60 65 64 57 57 60 55 57 61 60 57 56 55 52 50
68 58 46 41 40 38 36 32 25 19 15 12 11 11 10 9 7 5 5 5 6 6 6 7 8 9 10 10 11 12 12 13 16 19 22 25 29 37 50 59 64 71 71 63 63 60 57 58 61 61 59 57 55 54
48 50 49 45 45 43 33 25 19 14 12 11 11 10 9 7 5 5 6 6 5 6 7 7 9 10 10 11 12 12 13 14 16 18 22 24 28 33 43 55 64 69 72 72 73 71 67 62 56 54 53 52 50 49
56 51 49 46 42 32 22 17 13 12 11 11 10 9 7 6 6 6 5 5 6 7 8 9 9 8 9 10 11 12 14 15 16 18 21 24 26 29 36 46 53 58 68 73 69 68 69 68 64 62 58 52 48 46
54 53 44 36 26 20 15 13 12 12 11 9 9 7 6 6 6 5 6 7 7 8 9 8 8 8 8 9 10 12 13 14 16 18 20 22 24 27 31 37 42 50 57 65 68 65 61 60 60 59 57 56 54 50
55 43 30 22 17 14 14 12 12 12 10 9 8 6 6 6 6 6 7 8 9 9 8 7 8 8 8 9 10 11 12 13 15 17 18 18 20 23 26 29 34 43 50 54 58 59 58 56 55 53 53 52 50 47
30 22 19 16 15 14 13 12 12 10 10 8 6 6 6 6 6 8 8 9 10 8 8 8 8 8 8 9 10 10 11 12 14 15 16 18 19 20 22 24 27 33 40 46 50 53 55 56 54 53 50 47 45 45
18 17 15 15 15 14 13 12 12 11 9 6 6 7 6 6 8 8 9 10 9 8 8 8 8 8 8 8 10 10 11 11 12 13 14 16 18 18 20 22 24 29 32 37 42 46 50 51 51 50 49 49 50 48
16 15 16 15 14 15 13 13 11 10 7 7 7 7 7 8 9 10 10 9 8 8 8 8 8 8 9 9 9 10 10 11 12 13 13 14 15 17 18 19 20 22 26 32 36 38 39 41 42 40 40 44 43 40
15 16 15 15 15 13 13 12 9 7 8 7 7 8 9 9 9 10 11 10 9 9 9 9 9 9 9 9 10 10 10 10 11 11 12 12 12 14 16 17 18 20 24 28 30 31 32 34 33 33 34 31 29 27
Wind_Speed
62 65 67 68 69 71 75 76 79 82 85 86 89 92 96 99 103 106 109 115 120 123 127 130 134 139 144 150 156 158 157 153 154 134 118 106 95 85 74 64 55 46 40 36 33 33 31 34 35 34 33 36 42 46
67 67 72 72 72 75 79 79 82 84 86 88 90 93 97 102 106 111 114 118 122 127 132 135 139 145 149 156 158 156 156 156 140 123 111 100 88 77 67 57 49 41 36 33 32 29 30 31 30 32 34 33 35 41
69 73 76 76 78 80 81 83 83 86 87 92 94 98 101 107 111 115 118 121 126 132 136 138 144 150 156 160 158 157 154 150 127 114 104 92 81 70 59 52 45 40 36 32 29 27 27 27 27 27 32 31 30 36
74 77 78 75 78 82 84 85 86 88 93 93 95 100 104 108 116 117 120 125 129 134 139 141 147 156 159 162 159 156 156 135 117 107 96 84 73 62 53 48 43 40 37 34 29 26 24 26 25 25 28 30 28 29
78 78 76 79 84 84 85 87 90 94 97 98 99 101 107 115 119 121 124 129 133 136 139 146 149 158 162 161 159 156 141 121 109 98 87 76 66 57 49 44 39 37 34 32 29 28 26 24 23 24 24 25 29 27
82 82 84 84 84 87 89 90 94 98 102 103 103 109 113 117 121 123 127 132 136 137 143 149 155 161 159 159 157 145 126 112 100 89 78 69 60 52 46 43 41 37 34 30 25 24 23 21 21 20 24 25 26 27
82 81 84 86 87 89 91 94 99 101 107 105 109 113 116 120 123 126 130 135 136 142 149 154 158 159 159 157 147 128 116 104 92 81 70 62 54 48 43 38 35 35 32 27 25 21 19 21 16 16 19 23 23 24
83 83 84 83 86 91 95 101 103 106 105 106 111 116 119 122 124 128 134 137 141 146 153 155 160 162 158 149 132 117 107 95 84 73 64 56 51 46 43 40 37 29 23 25 25 24 20 18 15 12 14 18 20 19
80 81 83 86 87 94 101 102 107 104 107 110 115 118 120 123 127 133 136 140 147 150 155 162 160 156 153 136 118 107 98 87 74 66 58 52 49 44 42 38 32 27 20 16 17 17 18 19 16 12 9 14 17 17
76 78 81 85 90 96 98 97 101 105 109 114 116 118 125 127 132 136 137 145 148 154 162 160 156 153 138 120 109 98 88 76 68 59 53 48 46 43 41 37 32 26 24 18 15 15 17 17 16 13 10 8 10 14
78 82 86 90 92 91 96 101 105 109 113 115 117 124 126 130 135 137 145 148 154 158 160 152 149 139 121 110 101 90 79 69 62 53 48 45 43 42 39 33 28 28 26 23 22 20 18 13 12 11 10 9 8 8
81 84 87 90 94 97 102 103 107 111 113 117 120 123 130 132 139 143 145 153 155 159 151 147 137 119 110 102 91 80 70 62 55 48 45 41 40 39 37 31 27 27 25 25 23 22 22 18 15 12 10 8 7 6
84 86 90 92 95 98 101 104 109 107 113 121 124 127 132 138 143 146 152 155 158 152 147 136 118 109 101 92 81 72 63 55 48 44 41 39 38 36 32 28 27 25 24 21 20 20 18 16 15 15 13 10 7 4
87 92 94 94 98 101 103 107 109 114 116 121 127 131 137 143 146 152 154 160 148 147 135 117 108 100 91 81 72 65 56 49 44 40 37 35 34 33 29 27 24 24 22 20 19 17 16 14 14 13 12 10 9 7
90 93 95 97 99 101 105 108 109 114 123 127 132 137 141 146 153 153 161 148 144 130 117 106 101 91 80 72 64 57 50 44 39 36 33 32 32 30 26 24 23 22 19 18 16 14 12 12 12 11 9 9 10 10
85 89 94 97 101 104 105 111 116 121 122 131 140 142 147 152 153 159 147 140 124 114 106 99 91 81 72 64 57 50 44 39 36 32 29 28 29 26 23 22 21 18 16 14 12 11 11 11 11 8 10 12 9 10
87 88 94 97 101 105 110 115 120 125 132 138 142 149 151 155 154 142 131 119 110 103 99 90 81 72 63 56 51 45 40 35 32 29 25 24 25 22 19 19 16 15 12 11 10 10 10 9 8 11 9 7 8 10
92 99 103 104 111 113 118 122 127 132 136 145 147 152 155 145 137 125 115 108 102 96 89 80 71 62 55 50 45 40 36 31 28 25 22 20 21 18 16 16 13 12 7 7 7 6 7 7 7 6 5 7 9 10
97 99 104 110 115 117 123 127 133 139 142 149 151 143 135 131 120 113 106 101 95 86 77 70 63 55 49 45 40 36 32 28 25 22 20 17 17 16 13 14 10 10 5 4 5 5 4 4 4 5 7 7 9 9
102 106 113 116 119 123 126 133 137 144 143 146 137 132 123 115 110 104 100 93 84 75 68 62 55 49 44 40 37 33 29 25 22 20 18 15 15 14 12 12 9 7 5 3 3 3 2 2 3 4 5 3 6 7
109 113 114 118 121 127 130 136 137 140 135 131 129 117 113 107 102 98 90 83 74 67 60 55 49 43 39 38 35 30 26 23 20 18 17 15 13 13 13 11 8 7 5 3 2 2 2 2 2 3 3 2 3 4
109 114 118 121 125 128 132 134 131 128 125 119 112 110 104 100 94 88 81 73 66 59 54 49 44 40 37 34 32 27 23 20 19 17 16 15 13 13 12 14 11 9 6 5 4 4 4 4 3 2 2 2 2 2
113 114 117 122 125 129 128 126 125 123 115 112 108 102 98 91 85 78 71 64 58 53 48 44 41 37 33 30 28 26 22 19 18 17 16 15 14 13 13 15 14 12 9 8 6 5 5 5 5 4 3 2 2 3
112 115 118 122 121 121 122 120 118 113 110 104 98 94 89 84 75 69 64 59 53 50 45 41 38 34 30 28 26 24 21 19 18 17 16 16 15 13 14 15 14 13 12 11 10 8 7 7 7 6 6 6 6 5
115 114 114 116 117 119 120 116 111 107 99 95 91 87 81 74 68 63 58 54 50 46 41 38 34 32 29 27 24 23 21 19 17 17 17 16 15 14 14 15 15 14 14 14 13 12 10 9 10 10 10 10 9 9
109 111 112 117 123 121 115 110 102 97 92 89 84 78 73 66 61 56 53 49 45 42 39 35 33 30 27 25 24 22 21 20 18 17 17 17 16 16 16 16 16 17 17 17 16 15 15 15 14 14 14 14 14 14
110 114 118 116 114 110 104 97 92 88 84 81 75 70 64 59 54 51 48 44 41 38 35 33 31 28 26 24 23 21 20 19 18 17 18 17 17 17 17 18 17 17 18 18 18 18 18 17 17 17 18 18 19 19
114 116 113 108 104 97 93 88 84 82 78 73 67 62 58 53 50 46 43 40 37 35 33 30 28 26 24 22 21 20 19 18 17 17 17 18 18 17 17 17 17 17 17 18 18 19 18 18 17 16 16 17 18 18
111 108 103 99 92 89 86 82 78 75 71 65 61 56 53 49 45 42 39 37 35 33 30 28 27 24 22 20 19 18 17 16 16 16 17 18 18 18 18 18 18 17 17 17 18 18 18 19 19 19 19 17 16 15
100 96 92 89 86 83 80 76 73 69 65 60 56 52 48 44 41 39 36 35 33 30 28 27 25 23 20 18 17 16 16 15 14 15 15 17 18 18 18 18 18 17 17 16 16 17 17 17 18 18 18 17 16 14
91 88 86 81 78 76 75 70 68 64 59 55 51 47 44 41 38 34 32 31 29 27 26 24 22 20 18 15 14 14 14 13 13 14 15 15 15 17 17 17 17 17 16 15 15 15 16 16 17 16 16 15 14 12
85 81 77 74 71 70 68 67 61 57 54 50 46 43 40 38 35 32 30 29 26 24 22 20 19 18 16 14 13 13 13 13 12 13 13 13 13 14 16 16 17 17 17 15 13 12 12 13 13 13 14 12 10 9
76 73 71 69 67 65 63 59 55 52 49 45 42 38 36 34 31 30 28 26 24 22 20 18 17 15 15 14 13 12 12 11 11 11 11 12 12 12 13 13 14 14 14 13 13 12 10 10 10 11 10 9 10 10
Wind_Direction
274 278 283 284 287 291 292 295 298 301 302 306 308 308 308 310 312 312 313 315 317 320 321 322 322 326 326 328 331 331 329 328 329 328 327 326 327 326 325 323 321 318 314 308 299 293 287 277 274 267 259 255 257 256
276 278 279 282 286 288 292 296 298 301 304 308 306 305 307 309 309 312 313 316 318 319 321 321 323 325 327 330 330 331 328 328 329 328 327 328 328 327 326 323 322 319 315 309 304 300 291 285 279 273 267 257 251 255
271 273 277 281 285 289 292 294 297 299 303 303 305 305 307 307 309 311 313 316 319 318 319 322 324 326 329 331 330 328 328 329 328 328 328 329 329 328 326 323 322 320 319 315 310 302 294 288 284 277 271 265 254 251
270 272 277 283 286 289 290 293 297 300 301 304 305 304 305 307 308 311 312 315 317 318 320 322 323 328 328 329 329 327 328 328 328 328 329 329 329 327 326 325 325 324 322 319 316 308 300 293 285 275 271 269 261 252
268 274 277 277 283 288 292 295 296 297 298 301 302 302 304 305 307 310 312 315 316 318 320 323 325 328 329 328 326 328 328 327 328 329 329 329 329 328 328 327 325 323 321 320 319 312 306 297 289 283 275 267 263 255
269 271 275 282 286 289 291 294 294 296 297 301 302 301 303 305 308 310 312 314 317 318 321 323 327 327 328 327 328 327 327 328 329 329 330 329 329 327 328 329 328 324 322 320 316 310 306 302 294 281 273 269 264 259
268 274 279 281 285 290 292 292 292 295 296 300 300 302 304 306 308 310 311 314 316 318 322 324 326 327 327 327 326 327 327 328 329 329 329 328 328 328 327 325 325 324 323 324 323 317 314 310 300 287 279 274 271 271
269 275 280 286 289 290 290 289 291 293 296 297 300 302 305 306 308 309 313 315 317 321 322 326 327 325 325 327 326 326 328 329 329 329 328 328 327 328 330 332 332 330 329 329 326 325 326 322 321 308 280 274 273 270
273 279 284 286 287 287 287 289 289 294 295 299 300 302 304 305 307 311 314 316 318 322 324 326 325 324 326 325 325 327 328 328 328 328 327 327 328 330 331 330 328 329 339 342 333 325 324 319 318 311 300 279 281 279
278 282 284 287 286 288 288 289 291 293 296 298 300 301 302 305 308 311 314 316 321 323 324 324 322 324 324 325 326 327 327 327 327 328 327 328 329 331 333 334 336 346 349 351 348 348 342 335 338 339 326 297 280 274
278 280 280 281 283 285 287 290 292 295 296 298 300 301 304 307 309 311 314 320 321 323 322 321 322 323 324 325 326 327 326 326 327 327 327 328 328 331 334 338 343 345 344 348 350 352 352 353 346 335 325 312 297 291
274 275 277 279 282 286 287 291 293 294 297 298 302 303 306 309 310 313 318 320 322 320 320 321 321 323 324 325 325 325 326 325 326 326 327 328 327 331 335 338 344 343 350 351 348 347 347 347 350 355 355 348 337 310
272 274 278 281 284 286 288 291 293 297 297 301 302 305 307 308 311 316 319 321 319 318 319 320 322 323 325 324 324 324 325 324 325 326 328 326 327 330 337 344 343 346 349 349 347 346 353 359 0 2 3 359 354 342
273 275 276 280 284 288 292 293 295 297 301 302 303 306 306 311 314 317 319 318 318 317 319 320 322 323 323 323 323 324 324 323 325 326 325 325 327 332 340 345 347 349 351 349 349 354 0 9 9 6 1 3 3 5
272 276 280 283 287 289 291 293 295 298 298 302 304 306 310 313 314 317 316 317 317 318 319 322 323 322 322 322 322 323 322 323 324 325 325 325 328 335 342 346 350 351 350 349 352 355 7 13 13 14 18 24 20 19
278 280 282 283 285 289 291 294 296 298 302 302 304 309 312 312 314 314 315 316 318 319 321 322 321 321 321 320 321 320 320 321 322 323 325 325 327 336 341 343 346 348 348 348 356 9 12 12 358 23 35 34 28 37
279 279 281 283 286 289 292 295 297 300 302 303 307 308 310 310 312 314 315 317 319 321 321 320 320 321 320 319 319 319 318 319 320 321 324 322 324 331 338 336 340 345 349 357 15 12 6 10 33 43 35 46 51 57
275 280 283 286 287 290 294 297 300 301 304 304 305 307 310 311 313 314 316 318 320 320 319 319 320 320 319 318 318 317 317 318 317 317 319 319 320 324 331 334 331 341 343 1 12 10 15 45 46 31 61 60 63 71
279 283 286 288 290 293 296 299 300 301 302 303 306 310 311 312 314 316 318 318 318 319 318 319 319 319 318 317 317 317 316 315 313 314 314 315 313 315 321 327 321 336 336 1 356 10 17 40 48 73 66 68 76 71
283 286 287 290 293 296 299 299 300 300 304 306 309 311 311 315 316 317 317 317 318 318 318 319 318 317 316 316 316 315 312 311 309 309 310 311 303 304 304 313 306 320 306 334 347 351 10 52 62 64 68 84 93 95
284 286 289 292 295 297 297 299 301 304 307 308 310 312 315 316 316 316 317 317 318 318 318 317 317 316 316 314 313 312 309 308 306 303 302 304 294 288 289 295 281 304 286 272 268 255 214 184 150 117 107 104 112 117
287 289 292 294 294 297 299 302 304 307 309 312 314 315 315 315 316 316 317 318 319 319 318 316 316 316 314 311 309 309 308 303 300 296 294 293 289 276 272 279 286 291 295 257 255 251 253 237 207 193 161 171 184 168
290 292 291 294 296 299 302 304 306 309 312 314 315 314 315 316 317 317 318 319 319 318 317 316 316 314 311 307 306 306 304 298 294 291 288 284 282 270 259 260 276 278 275 284 256 242 243 242 235 233 226 226 237 226
288 291 294 297 301 303 304 305 311 313 314 314 314 315 316 317 318 319 319 319 318 316 316 316 314 312 309 304 301 300 300 294 287 284 281 279 272 269 256 252 258 274 265 270 270 247 245 251 257 256 252 249 248 252
291 294 298 303 304 305 308 311 312 313 313 314 315 317 318 319 318 318 318 317 316 316 315 314 312 310 307 303 298 296 294 290 283 274 272 270 265 262 249 245 244 246 254 259 261 261 260 255 259 265 268 272 277 279
296 300 302 303 305 308 310 311 312 312 313 315 316 318 318 318 318 317 317 316 315 314 313 312 310 308 305 300 296 292 288 285 279 269 264 263 259 256 249 239 237 242 244 246 251 258 262 267 268 267 271 276 283 287
300 301 302 306 307 308 310 310 311 313 314 315 317 318 318 319 318 317 316 315 315 314 312 311 310 308 305 301 296 290 284 279 275 266 258 257 253 250 247 241 239 239 241 247 246 246 250 258 266 272 277 281 285 289
301 303 305 306 307 309 310 312 313 314 315 317 319 319 319 319 318 317 316 316 315 314 313 311 309 308 305 300 295 287 281 275 268 262 256 253 250 248 245 244 242 243 243 243 248 252 255 257 261 268 275 281 287 293
302 303 304 306 308 310 311 312 314 315 316 319 319 319 319 319 318 316 316 316 315 314 312 311 311 308 303 299 295 287 282 275 266 259 255 251 248 245 245 245 241 239 244 248 251 254 259 262 266 271 277 281 287 291
302 304 306 308 310 310 311 313 315 316 318 320 320 319 319 318 317 316 316 315 314 314 314 312 311 308 306 301 293 288 284 276 266 260 255 253 251 247 245 247 244 242 244 248 254 260 266 271 273 277 281 283 291 300
304 305 307 309 309 311 310 314 315 318 318 320 319 318 318 318 317 316 316 314 313 313 313 312 311 311 308 304 299 291 284 277 268 260 255 253 251 251 247 247 246 244 246 251 256 260 263 267 270 276 280 284 294 299
305 307 308 307 310 310 312 313 317 318 318 318 317 317 317 317 316 317 316 315 314 314 315 314 314 313 311 307 302 294 288 280 268 260 256 253 247 249 250 251 247 245 246 248 255 262 267 269 270 272 280 281 281 282
306 306 306 309 309 310 313 315 316 317 317 316 316 316 316 315 316 316 314 313 314 315 315 315 314 312 311 308 303 296 288 278 269 263 259 256 250 248 251 252 250 247 246 247 252 259 262 265 270 271 272 273 278 283